[Iaude] MPEC A79: 2024 AP1 [a=2.29,e=0.52,i=4.1,H=25.1]
    mpec at marsden.cfa.harvard.edu 
    mpec at marsden.cfa.harvard.edu
       
    Mon Jan  8 11:58:22 EST 2024
    
    
  
M.P.E.C. 2024-A79                               Issued 2024 January 8, 16:56 UT
     The Minor Planet Electronic Circulars contain information on unusual
         minor planets, routine data on comets and natural satellites,
         and occasional editorial announcements.  They are published
    on behalf of Division F of the International Astronomical Union by the
          Minor Planet Center, Smithsonian Astrophysical Observatory,
                          Cambridge, MA 02138, U.S.A.
			  
             Prepared using the Tamkin Foundation Computer Network
                              MPC at CFA.HARVARD.EDU
            URL https://www.minorplanetcenter.net/    ISSN 1523-6714
                                    2024 AP1                                    
Observations:
     K24A01P* C2024 01 03.38601906 48 51.285+42 34 53.49         21.83wXEA079F51
     K24A01P  C2024 01 03.40867806 48 59.687+42 34 09.58         21.40wXEA079F51
     K24A01P  C2024 01 03.42005806 49 03.894+42 33 46.92         21.45wXEA079F51
     K24A01P  C2024 01 03.53737506 49 47.550+42 29 40.97         20.71GVEA079F51
     K24A01P  C2024 01 03.53866006 49 48.142+42 29 36.77         21.08GVEA079F51
     K24A01P  C2024 01 03.53930606 49 48.327+42 29 36.01         21.21GVEA079F51
     K24A01P  C2024 01 03.53995206 49 48.556+42 29 34.62         21.55GVEA079F51
     K24A01P  C2024 01 05.40510707 02 37.451+41 21 14.62         21.36GVEA079F52
     K24A01P  C2024 01 05.40592407 02 37.733+41 21 12.69         21.53GVEA079F52
     K24A01P  C2024 01 08.36860807 22 38.249+39 11 18.82         21.27GVEA079F51
     K24A01P  C2024 01 08.38002107 22 42.409+39 10 46.94         21.31GVEA079F51
     K24A01P  C2024 01 08.39146007 22 46.539+39 10 15.14         21.19GVEA079F51
     K24A01P  C2024 01 08.56021507 23 47.551+39 01 57.33         21.69GVEA079F51
Observer details:
F51 Pan-STARRS 1, Haleakala.  Observers J. Herman, T. Lowe, P. Minguez, A.
    Schultz, I. Smith.  Measurers K. Chambers, T. de Boer, J. Fairlamb, H.
    Gao, M. Huber, C.-C. Lin, E. Magnier, Y. Ramanjooloo, R. Wainscoat, R.
    Weryk.  1.8-m Ritchey-Chretien + CCD.
F52 Pan-STARRS 2, Haleakala.  Observers J. Herman, T. Lowe, P. Minguez, A.
    Schultz, I. Smith.  Measurers K. Chambers, T. de Boer, J. Fairlamb, H.
    Gao, M. Huber, C.-C. Lin, E. Magnier, Y. Ramanjooloo, R. Wainscoat, R.
    Weryk.  1.8-m Ritchey-Chretien + CCD.
Orbital elements:
2024 AP1                                                 Earth MOID = 0.1114 AU
Epoch 2023 Sept. 13.0 TT = JDT 2460200.5                MPC                     
M 326.14471              (2000.0)            P               Q                  
n   0.28386540     Peri.  156.92759     -0.32836013     -0.94306490             
a   2.2929490      Node   312.19657     +0.85507779     -0.27295287             
e   0.5234595      Incl.    4.10187     +0.40127497     -0.19006662             
P   3.47           H   25.16          G   0.15           U   8                  
Residuals in seconds of arc
240103 F51  0.1-  0.0     240103 F51  0.4+  0.1-    240108 F51  0.1+  0.0
240103 F51  0.1-  0.1+    240103 F51  0.2+  0.1-    240108 F51  0.0   0.0
240103 F51  0.1-  0.1-    240105 F52  0.1+  0.0     240108 F51  0.1-  0.1-
240103 F51  0.1-  0.6+    240105 F52  0.1-  0.0
240103 F51  1.0+  0.8-    240108 F51  0.0   0.4+
Ephemeris:
2024 AP1                 a,e,i = 2.29, 0.52, 4                   q = 1.0927
Date    TT    R. A. (2000) Decl.     Delta      r    Elong.  Phase     V
2023 12 09    04 42 14.4 +44 28 01   0.1834  1.1571   157.9    18.6    22.7
...
2023 12 24    05 43 05.6 +45 47 44   0.1377  1.1118   157.1    20.1    22.1
...
2024 01 01    06 32 39.9 +43 45 34   0.1220  1.0982   159.2    18.5    21.7
...
2024 01 07    07 13 25.1 +40 14 05   0.1149  1.0934   162.2    15.9    21.5
2024 01 08    07 20 07.8 +39 28 31   0.1142  1.0930   162.8    15.4    21.5
2024 01 09    07 26 45.7 +38 40 13   0.1136  1.0928   163.5    14.9    21.5
...
2024 01 15    08 03 52.5 +33 03 58   0.1129  1.0941   167.4    11.3    21.3
...
2024 01 23    08 43 34.3 +24 40 39   0.1199  1.1031   172.2     7.0    21.3
...
2024 02 07    09 28 22.8 +11 47 47   0.1550  1.1407   175.6     3.8    21.8
A. U. Tomatic                (C) Copyright 2024 MPC           M.P.E.C. 2024-A79
    
    
More information about the Iaude
mailing list